APSTAR-9

Last updated on Thu Jul 03 2025 00:02:47 GMT+0000 (Coordinated Universal Time)

1 40982U 15059A 25183.59474966 -.00000259 00000+0 00000+0 0 9997 2 40982 0.0157 7.8528 0001763 137.0810 132.0393 1.00270196 35617
UTC large
Height (km)
Speed (km/s)
/
Latitude / Longitude
Inclination (degrees)
Orbital Period (minutes)
Azimuth
Elevation
Range (km)
Doppler Factor

Next 0 passes for location: London (51.5072 / 0.1276)

Sorry there are no passes over London.